Location: Newark
(28.4500°N, 16.2500°W)
Time: 17:31:18
(UTC+00:00)

JUGNU - Visible Passes

Search period start: 21 October 2019 00:00
Search period end: 31 October 2019 00:00
Orbit: 837 x 864 km, 20.0° (Epoch: 21 October)

Date Brightness Start Highest point End Pass type
(mag) Time Alt. Az. Time Alt. Az. Time Alt. Az.
21 Oct ? 05:04:55 13° S 05:04:55 13° S 05:06:25 10° SSE visible
22 Oct ? 21:14:13 10° SSW 21:14:31 11° SSW 21:14:31 11° SSW visible
23 Oct ? 20:58:49 10° SW 21:00:26 16° SSW 21:00:26 16° SSW visible
24 Oct ? 18:58:12 10° S 18:59:40 11° SSE 19:01:10 10° SE visible
24 Oct ? 20:43:27 10° SW 20:46:20 21° SSW 20:46:20 21° SSW visible
25 Oct ? 20:28:07 10° SW 20:32:12 25° S 20:32:12 25° S visible
26 Oct ? 20:12:49 10° SW 20:17:43 27° SSE 20:18:03 27° SSE visible
27 Oct ? 19:57:31 10° SW 20:02:31 29° S 20:03:54 26° SE visible
27 Oct ? 21:45:44 10° WSW 21:45:44 10° WSW 21:45:44 10° WSW visible
28 Oct ? 19:42:14 10° SW 19:47:18 30° S 19:49:44 22° SE visible
28 Oct ? 21:30:33 10° WSW 21:31:34 15° WSW 21:31:34 15° WSW visible
29 Oct ? 19:26:58 10° SW 19:32:06 31° S 19:35:33 18° ESE visible
29 Oct ? 21:15:22 10° WSW 21:17:24 20° SW 21:17:24 20° SW visible
30 Oct ? 19:11:43 10° SW 19:16:54 32° S 19:21:22 13° ESE visible
30 Oct ? 21:00:11 10° WSW 21:03:13 26° SW 21:03:13 26° SW visible
